Date,TemperatureHighF,TemperatureAvgF,TemperatureLowF,DewpointHighF,DewpointAvgF,DewpointLowF,HumidityHigh,HumidityAvg,HumidityLow,PressureMaxIn,PressureMinIn,WindSpeedMaxMPH,WindSpeedAvgMPH,GustSpeedMaxMPH,PrecipitationSumIn
2013-2-1,47,27,14,19,13,8,82,58,32,30.39,30.11,5,2,0,0.00
2013-2-2,53,39,25,33,26,18,81,61,43,30.18,30.10,10,3,0,0.00
2013-2-3,54,45,38,32,27,21,68,51,30,30.18,29.88,8,3,0,0.00
2013-2-4,60,49,40,46,38,26,85,65,49,29.88,29.71,10,3,0,0.00
2013-2-5,64,47,31,50,35,29,95,68,32,29.95,29.80,8,2,0,0.00
2013-2-6,65,50,37,43,37,31,83,62,43,29.99,29.84,6,2,0,0.00
2013-2-7,56,51,44,53,48,40,96,89,79,29.97,29.74,8,3,0,0.00
2013-2-8,53,42,33,41,33,30,89,73,42,30.19,29.96,6,3,0,0.00
2013-2-9,47,40,34,42,34,28,93,78,48,30.12,29.74,7,4,0,0.00
2013-2-10,59,52,42,53,39,27,96,66,34,29.92,29.54,14,8,0,0.00
2013-2-11,54,40,30,29,27,25,84,61,35,30.09,29.92,7,2,0,0.00
2013-2-12,46,38,33,35,30,26,95,72,53,30.05,29.82,5,2,0,0.00
2013-2-13,51,40,33,38,33,32,97,79,50,29.93,29.84,8,4,0,0.00
2013-2-14,57,45,32,37,32,28,85,62,45,30.06,29.86,6,3,0,0.00
2013-2-15,44,35,25,31,22,14,82,60,36,30.23,30.06,9,4,0,0.00
2013-2-16,37,32,24,25,21,16,86,66,47,30.26,30.05,8,4,0,0.00
2013-2-17,63,47,29,34,26,16,67,46,29,30.06,29.72,8,3,0,0.00
2013-2-18,59,51,35,52,40,26,81,68,43,30.00,29.47,17,9,0,0.00
2013-2-19,45,35,25,26,21,18,77,59,39,30.23,29.99,10,4,0,0.00
2013-2-20,35,32,29,31,22,14,91,70,49,30.22,29.98,6,3,0,0.00
2013-2-21,36,33,29,35,30,25,96,90,80,29.99,29.60,9,4,0,0.00
2013-2-22,37,29,22,32,23,18,91,77,56,30.04,29.78,10,5,0,0.00
2013-2-23,45,32,21,26,22,19,92,70,45,30.04,29.88,6,1,0,0.00
2013-2-24,59,43,27,36,30,23,89,64,37,29.91,29.73,6,2,0,0.00
2013-2-25,43,39,37,37,34,30,93,81,64,29.78,29.33,10,5,0,0.00
2013-2-26,36,34,32,34,32,31,96,93,90,29.80,29.28,10,7,0,0.00
2013-2-27,39,34,33,33,30,27,93,85,73,29.99,29.76,12,7,0,0.00
2013-2-28,36,32,29,29,28,26,91,82,72,30.12,29.98,8,6,0,0.00